Regional Weather Roundup
Issued by NWS

Home | Current Version | Previous Version | Graphics & Text | Print | Product List | Glossary On
Versions: 1 2 3 4 5 6 7 8 9 10 11 12 13 14 15 16 17 18 19 20 21 22 23 24 25 26 27 28 29 30 31 32 33 34 35 36 37 38 39 40 41 42 43 44 45 46 47 48 49 50
462
ASUS43 KTOP 281408
RWRKS

WEATHER ROUNDUP FOR KANSAS
NATIONAL WEATHER SERVICE GOODLAND KS
900 AM CDT FRI APR 28 2017

NOTE:  "FAIR" INDICATES FEW OR NO CLOUDS BELOW 12,000 FEET WITH NO
SIGNIFICANT WEATHER AND/OR OBSTRUCTIONS TO VISIBILITY.

KSZ001>006-013>018-027>032-041>047-281500-
NORTHWEST KANSAS

CITY           SKY/WX    TMP DP  RH WIND       PRES   REMARKS
GOODLAND       CLOUDY    41  39  93 W13       29.67R
HAYS           SUNNY     51  44  77 W10       29.63R
HILL CITY      SUNNY     48  44  86 W13       29.62R
RUSSELL        PTSUNNY   51  48  89 W10       29.62R
$$

KSZ061>065-074>080-084>089-281500-
SOUTHWEST KANSAS

CITY           SKY/WX    TMP DP  RH WIND       PRES   REMARKS
DODGE CITY     SUNNY     49  41  74 NW15      29.65R
ELKHART          N/A     46  38  74 W8          N/A
GARDEN CITY    SUNNY     46  39  76 NW13      29.65R
GREAT BEND     MOSUNNY   53  47  79 NW10      29.64R
LIBERAL        SUNNY     48  40  73 NW14      29.67R
PRATT          SUNNY     51  46  82 NW8       29.66R
$$

KSZ066>073-081>083-090>101-281500-
SOUTHEAST KANSAS

CITY           SKY/WX    TMP DP  RH WIND       PRES   REMARKS
CHANUTE        LGT RAIN  58  55  90 SE22G28   29.61F
COFFEYVILLE    CLOUDY    59  56  89 SE9       29.63F
HUTCHINSON     CLOUDY    55  51  86 W10       29.64R
MEDICINE LODGE   N/A     55  50  83 NW5       29.64R
NEWTON         CLOUDY    55  52  89 S8        29.64R
PARSONS        CLOUDY    58  55  90 VRB6      29.65S
WICHITA INTL   CLOUDY    55  52  89 NW5       29.64R
WICHITA JABRA  CLOUDY    54  52  93 NW3       29.64R
WICHITA MCCONL CLOUDY    56  52  84 NW6       29.64R
WINFIELD       MOSUNNY   59  54  83 S12       29.63R
$$

KSZ007>012-019>026-033>040-048>060-102>105-281500-
NORTHEAST KANSAS

CITY           SKY/WX    TMP DP  RH WIND       PRES   REMARKS
CONCORDIA      LGT RAIN  48  48 100 E7        29.64R FOG
EMPORIA        CLOUDY    54  53  97 CALM      29.63R
LAWRENCE       CLOUDY    54  53  97 E8        29.66R
MANHATTAN      CLOUDY    52  52 100 E3        29.63R
MARYSVILLE     RAIN      45  45 100 NE9       29.67R
OLATHE IND     CLOUDY    53  52  96 E12       29.66R
OLATHE EXE     CLOUDY    52  52 100 SE7       29.66S
SALINA         CLOUDY    54  51  90 CALM      29.63R
TOPEKA BILLARD CLOUDY    53  53 100 E7        29.65R
TOPEKA FORBES  CLOUDY    54  52  93 SE8       29.64S
$$




USA.gov is the U.S. government's official web portal to all federal, state and local government web resources and services.